Year,Month,Day,Hour,Minute,Value (Times are PST for temperature in C)
2015,06,21,00,00,12.80
2015,06,21,00,01,12.80
2015,06,21,00,02,12.80
2015,06,21,00,03,12.80
2015,06,21,00,04,12.70
2015,06,21,00,05,12.70
2015,06,21,00,06,12.70
2015,06,21,00,07,12.70
2015,06,21,00,08,12.60
2015,06,21,00,09,12.60
2015,06,21,00,10,12.60
2015,06,21,00,11,12.60
2015,06,21,00,12,12.60
2015,06,21,00,13,12.60
2015,06,21,00,14,12.60
2015,06,21,00,15,12.60
2015,06,21,00,16,12.50
2015,06,21,00,17,12.50
2015,06,21,00,18,12.50
2015,06,21,00,19,12.50
2015,06,21,00,20,12.50
2015,06,21,00,21,12.50
2015,06,21,00,22,12.50
2015,06,21,00,23,12.50
2015,06,21,00,24,12.50
2015,06,21,00,25,12.50
2015,06,21,00,26,12.50
2015,06,21,00,27,12.50
2015,06,21,00,28,12.50
2015,06,21,00,29,12.40
2015,06,21,00,30,12.40
2015,06,21,00,31,12.30
2015,06,21,00,32,12.30
2015,06,21,00,33,12.30
2015,06,21,00,34,12.30
2015,06,21,00,35,12.30
2015,06,21,00,36,12.30
2015,06,21,00,37,12.30
2015,06,21,00,38,12.30
2015,06,21,00,39,12.30
2015,06,21,00,40,12.30
2015,06,21,00,41,12.30
2015,06,21,00,42,12.30
2015,06,21,00,43,12.30
2015,06,21,00,44,12.30
2015,06,21,00,45,12.30
2015,06,21,00,46,12.30
2015,06,21,00,47,12.30
2015,06,21,00,48,12.30
2015,06,21,00,49,12.30
2015,06,21,00,50,12.30
2015,06,21,00,51,12.30
2015,06,21,00,52,12.30
2015,06,21,00,53,12.30
2015,06,21,00,54,12.20
2015,06,21,00,55,12.10
2015,06,21,00,56,12.10
2015,06,21,00,57,12.10
2015,06,21,00,58,12.00
2015,06,21,00,59,12.00
2015,06,21,01,00,12.00
2015,06,21,01,01,12.00
2015,06,21,01,02,12.00
2015,06,21,01,03,12.00
2015,06,21,01,04,12.00
2015,06,21,01,05,12.00
2015,06,21,01,06,12.00
2015,06,21,01,07,12.00
2015,06,21,01,08,12.00
2015,06,21,01,09,12.00
2015,06,21,01,10,12.00
2015,06,21,01,11,12.00
2015,06,21,01,12,11.90
2015,06,21,01,13,11.90
2015,06,21,01,14,11.90
2015,06,21,01,15,11.90
2015,06,21,01,16,11.90
2015,06,21,01,17,11.80
2015,06,21,01,18,11.80
2015,06,21,01,19,11.80
2015,06,21,01,20,11.80
2015,06,21,01,21,11.80
2015,06,21,01,22,11.80
2015,06,21,01,23,11.80
2015,06,21,01,24,11.80
2015,06,21,01,25,11.80
2015,06,21,01,26,11.80
2015,06,21,01,27,11.80
2015,06,21,01,28,11.70
2015,06,21,01,29,11.70
2015,06,21,01,30,11.70
2015,06,21,01,31,11.70
2015,06,21,01,32,11.60
2015,06,21,01,33,11.60
2015,06,21,01,34,11.60
2015,06,21,01,35,11.60
2015,06,21,01,36,11.60
2015,06,21,01,37,11.60
2015,06,21,01,38,11.60
2015,06,21,01,39,11.60
2015,06,21,01,40,11.60
2015,06,21,01,41,11.60
2015,06,21,01,42,11.60
2015,06,21,01,43,11.60
2015,06,21,01,44,11.60
2015,06,21,01,45,11.50
2015,06,21,01,46,11.40
2015,06,21,01,47,11.40
2015,06,21,01,48,11.40
2015,06,21,01,49,11.40
2015,06,21,01,50,11.40
2015,06,21,01,51,11.40
2015,06,21,01,52,11.40
2015,06,21,01,53,11.40
2015,06,21,01,54,11.40
2015,06,21,01,55,11.40
2015,06,21,01,56,11.40
2015,06,21,01,57,11.40
2015,06,21,01,58,11.40
2015,06,21,01,59,11.40
2015,06,21,02,00,11.40
2015,06,21,02,01,11.40
2015,06,21,02,02,11.40
2015,06,21,02,03,11.40
2015,06,21,02,04,11.40
2015,06,21,02,05,11.40
2015,06,21,02,06,11.40
2015,06,21,02,07,11.40
2015,06,21,02,08,11.40
2015,06,21,02,09,11.40
2015,06,21,02,10,11.40
2015,06,21,02,11,11.40
2015,06,21,02,12,11.40
2015,06,21,02,13,11.40
2015,06,21,02,14,11.40
2015,06,21,02,15,11.40
2015,06,21,02,16,11.40
2015,06,21,02,17,11.30
2015,06,21,02,18,11.30
2015,06,21,02,19,11.30
2015,06,21,02,20,11.30
2015,06,21,02,21,11.30
2015,06,21,02,22,11.30
2015,06,21,02,23,11.30
2015,06,21,02,24,11.20
2015,06,21,02,25,11.20
2015,06,21,02,26,11.20
2015,06,21,02,27,11.20
2015,06,21,02,28,11.20
2015,06,21,02,29,11.20
2015,06,21,02,30,11.20
2015,06,21,02,31,11.20
2015,06,21,02,32,11.20
2015,06,21,02,33,11.10
2015,06,21,02,34,11.10
2015,06,21,02,35,11.10
2015,06,21,02,36,11.10
2015,06,21,02,37,11.10
2015,06,21,02,38,11.10
2015,06,21,02,39,11.10
2015,06,21,02,40,11.10
2015,06,21,02,41,11.10
2015,06,21,02,42,11.00
2015,06,21,02,43,10.90
2015,06,21,02,44,10.90
2015,06,21,02,45,10.90
2015,06,21,02,46,10.90
2015,06,21,02,47,10.90
2015,06,21,02,48,10.90
2015,06,21,02,49,10.90
2015,06,21,02,50,10.90
2015,06,21,02,51,10.90
2015,06,21,02,52,10.90
2015,06,21,02,53,10.90
2015,06,21,02,54,10.90
2015,06,21,02,55,10.90
2015,06,21,02,56,10.80
2015,06,21,02,57,10.80
2015,06,21,02,58,10.80
2015,06,21,02,59,10.80
2015,06,21,03,00,10.80
2015,06,21,03,01,10.90
2015,06,21,03,02,10.90
2015,06,21,03,03,10.90
2015,06,21,03,04,10.90
2015,06,21,03,05,10.80
2015,06,21,03,06,10.80
2015,06,21,03,07,10.80
2015,06,21,03,08,10.80
2015,06,21,03,09,10.80
2015,06,21,03,10,10.80
2015,06,21,03,11,10.70
2015,06,21,03,12,10.70
2015,06,21,03,13,10.70
2015,06,21,03,14,10.70
2015,06,21,03,15,10.70
2015,06,21,03,16,10.70
2015,06,21,03,17,10.70
2015,06,21,03,18,10.70
2015,06,21,03,19,10.70
2015,06,21,03,20,10.70
2015,06,21,03,21,10.70
2015,06,21,03,22,10.70
2015,06,21,03,23,10.70
2015,06,21,03,24,10.70
2015,06,21,03,25,10.70
2015,06,21,03,26,10.70
2015,06,21,03,27,10.70
2015,06,21,03,28,10.70
2015,06,21,03,29,10.70
2015,06,21,03,30,10.60
2015,06,21,03,31,10.60
2015,06,21,03,32,10.60
2015,06,21,03,33,10.60
2015,06,21,03,34,10.60
2015,06,21,03,35,10.60
2015,06,21,03,36,10.60
2015,06,21,03,37,10.60
2015,06,21,03,38,10.60
2015,06,21,03,39,10.60
2015,06,21,03,40,10.60
2015,06,21,03,41,10.60
2015,06,21,03,42,10.60
2015,06,21,03,43,10.60
2015,06,21,03,44,10.60
2015,06,21,03,45,10.60
2015,06,21,03,46,10.60
2015,06,21,03,47,10.40
2015,06,21,03,48,10.40
2015,06,21,03,49,10.40
2015,06,21,03,50,10.40
2015,06,21,03,51,10.40
2015,06,21,03,52,10.40
2015,06,21,03,53,10.40
2015,06,21,03,54,10.40
2015,06,21,03,55,10.40
2015,06,21,03,56,10.40
2015,06,21,03,57,10.30
2015,06,21,03,58,10.30
2015,06,21,03,59,10.30
2015,06,21,04,00,10.30
2015,06,21,04,01,10.30
2015,06,21,04,02,10.30
2015,06,21,04,03,10.20
2015,06,21,04,04,10.20
2015,06,21,04,05,10.20
2015,06,21,04,06,10.20
2015,06,21,04,07,10.20
2015,06,21,04,08,10.20
2015,06,21,04,09,10.20
2015,06,21,04,10,10.20
2015,06,21,04,11,10.20
2015,06,21,04,12,10.20
2015,06,21,04,13,10.20
2015,06,21,04,14,10.10
2015,06,21,04,15,10.10
2015,06,21,04,16,10.10
2015,06,21,04,17,10.10
2015,06,21,04,18,10.10
2015,06,21,04,19,10.10
2015,06,21,04,20,10.10
2015,06,21,04,21,10.10
2015,06,21,04,22,10.10
2015,06,21,04,23,10.20
2015,06,21,04,24,10.20
2015,06,21,04,25,10.20
2015,06,21,04,26,10.30
2015,06,21,04,27,10.30
2015,06,21,04,28,10.40
2015,06,21,04,29,10.40
2015,06,21,04,30,10.40
2015,06,21,04,31,10.40
2015,06,21,04,32,10.50
2015,06,21,04,33,10.60
2015,06,21,04,34,10.60
2015,06,21,04,35,10.70
2015,06,21,04,36,10.80
2015,06,21,04,37,10.90
2015,06,21,04,38,11.00
2015,06,21,04,39,11.10
2015,06,21,04,40,11.10
2015,06,21,04,41,11.20
2015,06,21,04,42,11.20
2015,06,21,04,43,11.30
2015,06,21,04,44,11.30
2015,06,21,04,45,11.40
2015,06,21,04,46,11.40
2015,06,21,04,47,11.40
2015,06,21,04,48,11.40
2015,06,21,04,49,11.40
2015,06,21,04,50,11.40
2015,06,21,04,51,11.50
2015,06,21,04,52,11.60
2015,06,21,04,53,11.60
2015,06,21,04,54,11.60
2015,06,21,04,55,11.60
2015,06,21,04,56,11.60
2015,06,21,04,57,11.60
2015,06,21,04,58,11.60
2015,06,21,04,59,11.70
2015,06,21,05,00,11.70
2015,06,21,05,01,11.70
2015,06,21,05,02,11.80
2015,06,21,05,03,11.80
2015,06,21,05,04,11.80
2015,06,21,05,05,11.80
2015,06,21,05,06,11.80
2015,06,21,05,07,11.80
2015,06,21,05,08,11.80
2015,06,21,05,09,11.90
2015,06,21,05,10,11.90
2015,06,21,05,11,12.00
2015,06,21,05,12,12.00
2015,06,21,05,13,12.00
2015,06,21,05,14,12.00
2015,06,21,05,15,12.00
2015,06,21,05,16,12.10
2015,06,21,05,17,12.10
2015,06,21,05,18,12.10
2015,06,21,05,19,12.10
2015,06,21,05,20,12.10
2015,06,21,05,21,12.10
2015,06,21,05,22,12.10
2015,06,21,05,23,12.10
2015,06,21,05,24,12.10
2015,06,21,05,25,12.10
2015,06,21,05,26,12.20
2015,06,21,05,27,12.20
2015,06,21,05,28,12.20
2015,06,21,05,29,12.20
2015,06,21,05,30,12.20
2015,06,21,05,31,12.20
2015,06,21,05,32,12.20
2015,06,21,05,33,12.30
2015,06,21,05,34,12.30
2015,06,21,05,35,12.30
2015,06,21,05,36,12.30
2015,06,21,05,37,12.30
2015,06,21,05,38,12.30
2015,06,21,05,39,12.30
2015,06,21,05,40,12.40
2015,06,21,05,41,12.40
2015,06,21,05,42,12.40
2015,06,21,05,43,12.40
2015,06,21,05,44,12.50
2015,06,21,05,45,12.50
2015,06,21,05,46,12.50
2015,06,21,05,47,12.50
2015,06,21,05,48,12.60
2015,06,21,05,49,12.60
2015,06,21,05,50,12.70
2015,06,21,05,51,12.70
2015,06,21,05,52,12.70
2015,06,21,05,53,12.70
2015,06,21,05,54,12.80
2015,06,21,05,55,12.80
2015,06,21,05,56,12.80
2015,06,21,05,57,12.80
2015,06,21,05,58,12.80
2015,06,21,05,59,12.80
2015,06,21,06,00,12.80
2015,06,21,06,01,12.80
2015,06,21,06,02,12.90
2015,06,21,06,03,12.90
2015,06,21,06,04,12.90
2015,06,21,06,05,12.90
2015,06,21,06,06,12.90
2015,06,21,06,07,13.00
2015,06,21,06,08,13.00
2015,06,21,06,09,13.00
2015,06,21,06,10,13.10
2015,06,21,06,11,13.10
2015,06,21,06,12,13.10
2015,06,21,06,13,13.20
2015,06,21,06,14,13.20
2015,06,21,06,15,13.20
2015,06,21,06,16,13.30
2015,06,21,06,17,13.30
2015,06,21,06,18,13.30
2015,06,21,06,19,13.30
2015,06,21,06,20,13.30
2015,06,21,06,21,13.30
2015,06,21,06,22,13.30
2015,06,21,06,23,13.30
2015,06,21,06,24,13.30
2015,06,21,06,25,13.30
2015,06,21,06,26,13.30
2015,06,21,06,27,13.40
2015,06,21,06,28,13.40
2015,06,21,06,29,13.40
2015,06,21,06,30,13.40
2015,06,21,06,31,13.50
2015,06,21,06,32,13.50
2015,06,21,06,33,13.50
2015,06,21,06,34,13.50
2015,06,21,06,35,13.50
2015,06,21,06,36,13.60
2015,06,21,06,37,13.60
2015,06,21,06,38,13.60
2015,06,21,06,39,13.60
2015,06,21,06,40,13.70
2015,06,21,06,41,13.70
2015,06,21,06,42,13.70
2015,06,21,06,43,13.70
2015,06,21,06,44,13.70
2015,06,21,06,45,13.70
2015,06,21,06,46,13.80
2015,06,21,06,47,13.80
2015,06,21,06,48,13.80
2015,06,21,06,49,13.90
2015,06,21,06,50,13.90
2015,06,21,06,51,14.00
2015,06,21,06,52,14.00
2015,06,21,06,53,14.00
2015,06,21,06,54,14.10
2015,06,21,06,55,14.10
2015,06,21,06,56,14.10
2015,06,21,06,57,14.20
2015,06,21,06,58,14.20
2015,06,21,06,59,14.20
2015,06,21,07,00,14.20
2015,06,21,07,01,14.20
2015,06,21,07,02,14.30
2015,06,21,07,03,14.30
2015,06,21,07,04,14.30
2015,06,21,07,05,14.40
2015,06,21,07,06,14.40
2015,06,21,07,07,14.50
2015,06,21,07,08,14.50
2015,06,21,07,09,14.50
2015,06,21,07,10,14.60
2015,06,21,07,11,14.60
2015,06,21,07,12,14.60
2015,06,21,07,13,14.70
2015,06,21,07,14,14.70
2015,06,21,07,15,14.70
2015,06,21,07,16,14.70
2015,06,21,07,17,14.70
2015,06,21,07,18,14.70
2015,06,21,07,19,14.70
2015,06,21,07,20,14.70
2015,06,21,07,21,14.70
2015,06,21,07,22,14.80
2015,06,21,07,23,14.80
2015,06,21,07,24,14.80
2015,06,21,07,25,14.80
2015,06,21,07,26,14.80
2015,06,21,07,27,14.80
2015,06,21,07,28,14.80
2015,06,21,07,29,14.80
2015,06,21,07,30,14.80
2015,06,21,07,31,14.80
2015,06,21,07,32,14.80
2015,06,21,07,33,14.80
2015,06,21,07,34,14.80
2015,06,21,07,35,14.80
2015,06,21,07,36,14.80
2015,06,21,07,37,14.80
2015,06,21,07,38,14.90
2015,06,21,07,39,14.90
2015,06,21,07,40,14.90
2015,06,21,07,41,14.90
2015,06,21,07,42,14.90
2015,06,21,07,43,15.00
2015,06,21,07,44,15.00
2015,06,21,07,45,15.00
2015,06,21,07,46,15.10
2015,06,21,07,47,15.10
2015,06,21,07,48,15.20
2015,06,21,07,49,15.20
2015,06,21,07,50,15.30
2015,06,21,07,51,15.30
2015,06,21,07,52,15.30
2015,06,21,07,53,15.30
2015,06,21,07,54,15.40
2015,06,21,07,55,15.40
2015,06,21,07,56,15.50
2015,06,21,07,57,15.50
2015,06,21,07,58,15.50
2015,06,21,07,59,15.50
2015,06,21,08,00,15.60
2015,06,21,08,01,15.60
2015,06,21,08,02,15.70
2015,06,21,08,03,15.70
2015,06,21,08,04,15.70
2015,06,21,08,05,15.80
2015,06,21,08,06,15.80
2015,06,21,08,07,15.80
2015,06,21,08,08,15.80
2015,06,21,08,09,15.80
2015,06,21,08,10,15.90
2015,06,21,08,11,15.90
2015,06,21,08,12,15.90
2015,06,21,08,13,15.90
2015,06,21,08,14,15.90
2015,06,21,08,15,15.90
2015,06,21,08,16,15.90
2015,06,21,08,17,15.80
2015,06,21,08,18,15.90
2015,06,21,08,19,15.90
2015,06,21,08,20,16.00
2015,06,21,08,21,16.10
2015,06,21,08,22,16.10
2015,06,21,08,23,16.10
2015,06,21,08,24,16.10
2015,06,21,08,25,16.10
2015,06,21,08,26,16.10
2015,06,21,08,27,16.10
2015,06,21,08,28,16.20
2015,06,21,08,29,16.20
2015,06,21,08,30,16.20
2015,06,21,08,31,16.30
2015,06,21,08,32,16.30
2015,06,21,08,33,16.40
2015,06,21,08,34,16.40
2015,06,21,08,35,16.40
2015,06,21,08,36,16.40
2015,06,21,08,37,16.40
2015,06,21,08,38,16.40
2015,06,21,08,39,16.40
2015,06,21,08,40,16.40
2015,06,21,08,41,16.40
2015,06,21,08,42,16.40
2015,06,21,08,43,16.40
2015,06,21,08,44,16.40
2015,06,21,08,45,16.40
2015,06,21,08,46,16.50
2015,06,21,08,47,16.60
2015,06,21,08,48,16.60
2015,06,21,08,49,16.60
2015,06,21,08,50,16.60
2015,06,21,08,51,16.70
2015,06,21,08,52,16.70
2015,06,21,08,53,16.70
2015,06,21,08,54,16.70
2015,06,21,08,55,16.60
2015,06,21,08,56,16.60
2015,06,21,08,57,16.60
2015,06,21,08,58,16.60
2015,06,21,08,59,16.70
2015,06,21,09,00,16.70
2015,06,21,09,01,16.70
2015,06,21,09,02,16.70
2015,06,21,09,03,16.70
2015,06,21,09,04,16.80
2015,06,21,09,05,16.80
2015,06,21,09,06,16.80
2015,06,21,09,07,16.80
2015,06,21,09,08,16.90
2015,06,21,09,09,16.90
2015,06,21,09,10,16.90
2015,06,21,09,11,16.90
2015,06,21,09,12,16.90
2015,06,21,09,13,16.90
2015,06,21,09,14,16.90
2015,06,21,09,15,17.00
2015,06,21,09,16,17.00
2015,06,21,09,17,17.00
2015,06,21,09,18,17.00
2015,06,21,09,19,17.00
2015,06,21,09,20,17.00
2015,06,21,09,21,17.00
2015,06,21,09,22,17.00
2015,06,21,09,23,17.10
2015,06,21,09,24,17.20
2015,06,21,09,25,17.20
2015,06,21,09,26,17.20
2015,06,21,09,27,17.20
2015,06,21,09,28,17.20
2015,06,21,09,29,17.20
2015,06,21,09,30,17.10
2015,06,21,09,31,17.10
2015,06,21,09,32,17.10
2015,06,21,09,33,17.10
2015,06,21,09,34,17.00
2015,06,21,09,35,17.00
2015,06,21,09,36,17.00
2015,06,21,09,37,16.90
2015,06,21,09,38,16.90
2015,06,21,09,39,16.90
2015,06,21,09,40,16.80
2015,06,21,09,41,16.80
2015,06,21,09,42,16.70
2015,06,21,09,43,16.70
2015,06,21,09,44,16.60
2015,06,21,09,45,16.60
2015,06,21,09,46,16.60
2015,06,21,09,47,16.60
2015,06,21,09,48,16.70
2015,06,21,09,49,16.70
2015,06,21,09,50,16.70
2015,06,21,09,51,16.70
2015,06,21,09,52,16.70
2015,06,21,09,53,16.70
2015,06,21,09,54,16.70
2015,06,21,09,55,16.70
2015,06,21,09,56,16.70
2015,06,21,09,57,16.80
2015,06,21,09,58,16.80
2015,06,21,09,59,16.80
2015,06,21,10,00,16.80
2015,06,21,10,01,16.90
2015,06,21,10,02,16.90
2015,06,21,10,03,16.80
2015,06,21,10,04,16.80
2015,06,21,10,05,16.90
2015,06,21,10,06,16.80
2015,06,21,10,07,16.80
2015,06,21,10,08,16.90
2015,06,21,10,09,17.00
2015,06,21,10,10,17.00
2015,06,21,10,11,17.10
2015,06,21,10,12,17.10
2015,06,21,10,13,17.10
2015,06,21,10,14,17.20
2015,06,21,10,15,17.20
2015,06,21,10,16,17.20
2015,06,21,10,17,17.20
2015,06,21,10,18,17.10
2015,06,21,10,19,17.00
2015,06,21,10,20,17.00
2015,06,21,10,21,17.00
2015,06,21,10,22,17.00
2015,06,21,10,23,17.00
2015,06,21,10,24,17.00
2015,06,21,10,25,16.90
2015,06,21,10,26,16.90
2015,06,21,10,27,16.90
2015,06,21,10,28,16.90
2015,06,21,10,29,16.90
2015,06,21,10,30,16.90
2015,06,21,10,31,17.00
2015,06,21,10,32,17.00
2015,06,21,10,33,17.00
2015,06,21,10,34,17.00
2015,06,21,10,35,17.00
2015,06,21,10,36,17.10
2015,06,21,10,37,17.20
2015,06,21,10,38,17.20
2015,06,21,10,39,17.20
2015,06,21,10,40,17.30
2015,06,21,10,41,17.40
2015,06,21,10,42,17.50
2015,06,21,10,43,17.50
2015,06,21,10,44,17.70
2015,06,21,10,45,17.70
2015,06,21,10,46,17.70
2015,06,21,10,47,17.60
2015,06,21,10,48,17.60
2015,06,21,10,49,17.60
2015,06,21,10,50,17.60
2015,06,21,10,51,17.60
2015,06,21,10,52,17.60
2015,06,21,10,53,17.60
2015,06,21,10,54,17.60
2015,06,21,10,55,17.60
2015,06,21,10,56,17.60
2015,06,21,10,57,17.60
2015,06,21,10,58,17.70
2015,06,21,10,59,17.70
2015,06,21,11,00,17.70
2015,06,21,11,01,17.80
2015,06,21,11,02,17.90
2015,06,21,11,03,17.90
2015,06,21,11,04,18.00
2015,06,21,11,05,18.20
2015,06,21,11,06,18.20
2015,06,21,11,07,18.20
2015,06,21,11,08,18.30
2015,06,21,11,09,18.30
2015,06,21,11,10,18.20
2015,06,21,11,11,18.20
2015,06,21,11,12,18.20
2015,06,21,11,13,18.20
2015,06,21,11,14,18.20
2015,06,21,11,15,18.20
2015,06,21,11,16,18.20
2015,06,21,11,17,18.20
2015,06,21,11,18,18.30
2015,06,21,11,19,18.30
2015,06,21,11,20,18.30
2015,06,21,11,21,18.30
2015,06,21,11,22,18.30
2015,06,21,11,23,18.30
2015,06,21,11,24,18.30
2015,06,21,11,25,18.30
2015,06,21,11,26,18.30
2015,06,21,11,27,18.40
2015,06,21,11,28,18.50
2015,06,21,11,29,18.50
2015,06,21,11,30,18.50
2015,06,21,11,31,18.50
2015,06,21,11,32,18.50
2015,06,21,11,33,18.50
2015,06,21,11,34,18.50
2015,06,21,11,35,18.50
2015,06,21,11,36,18.60
2015,06,21,11,37,18.60
2015,06,21,11,38,18.60
2015,06,21,11,39,18.70
2015,06,21,11,40,18.70
2015,06,21,11,41,18.70
2015,06,21,11,42,18.80
2015,06,21,11,43,18.80
2015,06,21,11,44,18.90
2015,06,21,11,45,19.00
2015,06,21,11,46,19.10
2015,06,21,11,47,19.10
2015,06,21,11,48,19.30
2015,06,21,11,49,19.30
2015,06,21,11,50,19.30
2015,06,21,11,51,19.30
2015,06,21,11,52,19.20
2015,06,21,11,53,19.20
2015,06,21,11,54,19.20
2015,06,21,11,55,19.20
2015,06,21,11,56,19.10
2015,06,21,11,57,19.10
2015,06,21,11,58,19.10
2015,06,21,11,59,19.20
2015,06,21,12,00,19.30
2015,06,21,12,01,19.40
2015,06,21,12,02,19.50
2015,06,21,12,03,19.60
2015,06,21,12,04,19.60
2015,06,21,12,05,19.60
2015,06,21,12,06,19.60
2015,06,21,12,07,19.60
2015,06,21,12,08,19.70
2015,06,21,12,09,19.70
2015,06,21,12,10,19.80
2015,06,21,12,11,19.80
2015,06,21,12,12,19.80
2015,06,21,12,13,19.90
2015,06,21,12,14,19.90
2015,06,21,12,15,19.90
2015,06,21,12,16,19.90
2015,06,21,12,17,20.00
2015,06,21,12,18,20.10
2015,06,21,12,19,20.10
2015,06,21,12,20,20.10
2015,06,21,12,21,20.20
2015,06,21,12,22,20.20
2015,06,21,12,23,20.30
2015,06,21,12,24,20.40
2015,06,21,12,25,20.50
2015,06,21,12,26,20.50
2015,06,21,12,27,20.50
2015,06,21,12,28,20.60
2015,06,21,12,29,20.60
2015,06,21,12,30,20.60
2015,06,21,12,31,20.60
2015,06,21,12,32,20.60
2015,06,21,12,33,20.60
2015,06,21,12,34,20.60
2015,06,21,12,35,20.60
2015,06,21,12,36,20.70
2015,06,21,12,37,20.70
2015,06,21,12,38,20.60
2015,06,21,12,39,20.60
2015,06,21,12,40,20.50
2015,06,21,12,41,20.50
2015,06,21,12,42,20.50
2015,06,21,12,43,20.50
2015,06,21,12,44,20.60
2015,06,21,12,45,20.60
2015,06,21,12,46,20.60
2015,06,21,12,47,20.60
2015,06,21,12,48,20.60
2015,06,21,12,49,20.60
2015,06,21,12,50,20.70
2015,06,21,12,51,20.80
2015,06,21,12,52,20.80
2015,06,21,12,53,20.90
2015,06,21,12,54,21.00
2015,06,21,12,55,21.00
2015,06,21,12,56,21.10
2015,06,21,12,57,21.10
2015,06,21,12,58,21.10
2015,06,21,12,59,21.10
2015,06,21,13,00,21.20
2015,06,21,13,01,21.30
2015,06,21,13,02,21.30
2015,06,21,13,03,21.40
2015,06,21,13,04,21.50
2015,06,21,13,05,21.60
2015,06,21,13,06,21.60
2015,06,21,13,07,21.60
2015,06,21,13,08,21.60
2015,06,21,13,09,21.70
2015,06,21,13,10,21.70
2015,06,21,13,11,21.80
2015,06,21,13,12,21.90
2015,06,21,13,13,21.90
2015,06,21,13,14,22.00
2015,06,21,13,15,22.00
2015,06,21,13,16,22.00
2015,06,21,13,17,22.00
2015,06,21,13,18,21.80
2015,06,21,13,19,21.80
2015,06,21,13,20,21.80
2015,06,21,13,21,21.70
2015,06,21,13,22,21.80
2015,06,21,13,23,21.80
2015,06,21,13,24,21.90
2015,06,21,13,25,22.00
2015,06,21,13,26,22.00
2015,06,21,13,27,22.10
2015,06,21,13,28,22.10
2015,06,21,13,29,22.10
2015,06,21,13,30,22.10
2015,06,21,13,31,22.10
2015,06,21,13,32,22.00
2015,06,21,13,33,21.90
2015,06,21,13,34,21.90
2015,06,21,13,35,21.80
2015,06,21,13,36,21.70
2015,06,21,13,37,21.70
2015,06,21,13,38,21.80
2015,06,21,13,39,21.80
2015,06,21,13,40,21.80
2015,06,21,13,41,21.90
2015,06,21,13,42,21.90
2015,06,21,13,43,21.90
2015,06,21,13,44,22.00
2015,06,21,13,45,22.00
2015,06,21,13,46,22.10
2015,06,21,13,47,22.20
2015,06,21,13,48,22.20
2015,06,21,13,49,22.20
2015,06,21,13,50,22.20
2015,06,21,13,51,22.20
2015,06,21,13,52,22.20
2015,06,21,13,53,22.20
2015,06,21,13,54,22.20
2015,06,21,13,55,22.10
2015,06,21,13,56,22.10
2015,06,21,13,57,22.10
2015,06,21,13,58,22.10
2015,06,21,13,59,22.10
2015,06,21,14,00,22.10
2015,06,21,14,01,22.10
2015,06,21,14,02,22.10
2015,06,21,14,03,22.10
2015,06,21,14,04,22.10
2015,06,21,14,05,22.10
2015,06,21,14,06,22.10
2015,06,21,14,07,22.20
2015,06,21,14,08,22.20
2015,06,21,14,09,22.20
2015,06,21,14,10,22.20
2015,06,21,14,11,22.20
2015,06,21,14,12,22.30
2015,06,21,14,13,22.20
2015,06,21,14,14,22.20
2015,06,21,14,15,22.20
2015,06,21,14,16,22.20
2015,06,21,14,17,22.30
2015,06,21,14,18,22.30
2015,06,21,14,19,22.40
2015,06,21,14,20,22.40
2015,06,21,14,21,22.50
2015,06,21,14,22,22.50
2015,06,21,14,23,22.40
2015,06,21,14,24,22.40
2015,06,21,14,25,22.40
2015,06,21,14,26,22.30
2015,06,21,14,27,22.20
2015,06,21,14,28,22.20
2015,06,21,14,29,22.20
2015,06,21,14,30,22.20
2015,06,21,14,31,22.20
2015,06,21,14,32,22.10
2015,06,21,14,33,22.10
2015,06,21,14,34,22.10
2015,06,21,14,35,22.20
2015,06,21,14,36,22.20
2015,06,21,14,37,22.30
2015,06,21,14,38,22.30
2015,06,21,14,39,22.30
2015,06,21,14,40,22.30
2015,06,21,14,41,22.40
2015,06,21,14,42,22.40
2015,06,21,14,43,22.60
2015,06,21,14,44,22.70
2015,06,21,14,45,22.60
2015,06,21,14,46,22.60
2015,06,21,14,47,22.60
2015,06,21,14,48,22.60
2015,06,21,14,49,22.60
2015,06,21,14,50,22.60
2015,06,21,14,51,22.60
2015,06,21,14,52,22.60
2015,06,21,14,53,22.60
2015,06,21,14,54,22.60
2015,06,21,14,55,22.60
2015,06,21,14,56,22.50
2015,06,21,14,57,22.50
2015,06,21,14,58,22.50
2015,06,21,14,59,22.50
2015,06,21,15,00,22.50
2015,06,21,15,01,22.40
2015,06,21,15,02,22.30
2015,06,21,15,03,22.30
2015,06,21,15,04,22.40
2015,06,21,15,05,22.40
2015,06,21,15,06,22.40
2015,06,21,15,07,22.40
2015,06,21,15,08,22.50
2015,06,21,15,09,22.60
2015,06,21,15,10,22.70
2015,06,21,15,11,22.80
2015,06,21,15,12,22.80
2015,06,21,15,13,22.80
2015,06,21,15,14,22.80
2015,06,21,15,15,22.80
2015,06,21,15,16,22.80
2015,06,21,15,17,22.80
2015,06,21,15,18,22.80
2015,06,21,15,19,22.90
2015,06,21,15,20,23.00
2015,06,21,15,21,23.10
2015,06,21,15,22,23.10
2015,06,21,15,23,23.00
2015,06,21,15,24,22.90
2015,06,21,15,25,22.90
2015,06,21,15,26,22.90
2015,06,21,15,27,22.90
2015,06,21,15,28,22.90
2015,06,21,15,29,22.90
2015,06,21,15,30,22.90
2015,06,21,15,31,22.80
2015,06,21,15,32,22.70
2015,06,21,15,33,22.80
2015,06,21,15,34,22.80
2015,06,21,15,35,22.90
2015,06,21,15,36,22.90
2015,06,21,15,37,23.10
2015,06,21,15,38,23.10
2015,06,21,15,39,23.20
2015,06,21,15,40,23.20
2015,06,21,15,41,23.30
2015,06,21,15,42,23.30
2015,06,21,15,43,23.30
2015,06,21,15,44,23.30
2015,06,21,15,45,23.30
2015,06,21,15,46,23.30
2015,06,21,15,47,23.40
2015,06,21,15,48,23.40
2015,06,21,15,49,23.40
2015,06,21,15,50,23.50
2015,06,21,15,51,23.50
2015,06,21,15,52,23.60
2015,06,21,15,53,23.60
2015,06,21,15,54,23.70
2015,06,21,15,55,23.70
2015,06,21,15,56,23.70
2015,06,21,15,57,23.70
2015,06,21,15,58,23.70
2015,06,21,15,59,23.70
2015,06,21,16,00,23.70
2015,06,21,16,01,23.70
2015,06,21,16,02,23.70
2015,06,21,16,03,23.60
2015,06,21,16,04,23.60
2015,06,21,16,05,23.50
2015,06,21,16,06,23.40
2015,06,21,16,07,23.40
2015,06,21,16,08,23.40
2015,06,21,16,09,23.40
2015,06,21,16,10,23.50
2015,06,21,16,11,23.60
2015,06,21,16,12,23.70
2015,06,21,16,13,23.70
2015,06,21,16,14,23.70
2015,06,21,16,15,23.70
2015,06,21,16,16,23.70
2015,06,21,16,17,23.70
2015,06,21,16,18,23.80
2015,06,21,16,19,23.80
2015,06,21,16,20,23.80
2015,06,21,16,21,23.80
2015,06,21,16,22,23.90
2015,06,21,16,23,24.00
2015,06,21,16,24,24.10
2015,06,21,16,25,24.20
2015,06,21,16,26,24.30
2015,06,21,16,27,24.30
2015,06,21,16,28,24.20
2015,06,21,16,29,23.90
2015,06,21,16,30,23.70
2015,06,21,16,31,23.40
2015,06,21,16,32,23.10
2015,06,21,16,33,22.80
2015,06,21,16,34,22.70
2015,06,21,16,35,22.70
2015,06,21,16,36,22.80
2015,06,21,16,37,22.90
2015,06,21,16,38,22.90
2015,06,21,16,39,22.90
2015,06,21,16,40,23.20
2015,06,21,16,41,23.30
2015,06,21,16,42,23.30
2015,06,21,16,43,23.30
2015,06,21,16,44,23.40
2015,06,21,16,45,23.40
2015,06,21,16,46,23.30
2015,06,21,16,47,23.40
2015,06,21,16,48,23.40
2015,06,21,16,49,23.30
2015,06,21,16,50,23.40
2015,06,21,16,51,23.50
2015,06,21,16,52,23.60
2015,06,21,16,53,23.60
2015,06,21,16,54,23.60
2015,06,21,16,55,23.60
2015,06,21,16,56,23.60
2015,06,21,16,57,23.70
2015,06,21,16,58,23.90
2015,06,21,16,59,24.00
2015,06,21,17,00,24.10
2015,06,21,17,01,24.10
2015,06,21,17,02,24.10
2015,06,21,17,03,24.00
2015,06,21,17,04,23.90
2015,06,21,17,05,23.80
2015,06,21,17,06,23.70
2015,06,21,17,07,23.70
2015,06,21,17,08,23.50
2015,06,21,17,09,23.30
2015,06,21,17,10,23.30
2015,06,21,17,11,23.10
2015,06,21,17,12,23.00
2015,06,21,17,13,22.90
2015,06,21,17,14,22.90
2015,06,21,17,15,23.00
2015,06,21,17,16,23.20
2015,06,21,17,17,23.20
2015,06,21,17,18,23.30
2015,06,21,17,19,23.20